Location: Beuvrequen
(50.8014°N, 1.6652°E)
Time: 18:54:25
(UTC+00:00)

Daily predictions for brighter satellites

Satellite Brightness Start Highest point End
(mag) Time Altitude Azimuth Time Altitude Azimuth Time Altitude Azimuth
Cosmos 2360 Rocket 4.2 20:19:36 10° N 20:23:22 18° NNE 20:27:06 10° ENE
ERS-1 Rocket 4.0 20:21:47 10° SE 20:26:13 32° ENE 20:30:39 10° N
BREEZE-M DEB (TANK) 4.2 20:23:15 10° S 20:26:49 31° SE 20:36:35 10° ENE
Gbstr 26 Del rocket 2.8 20:23:35 10° W 20:27:19 76° N 20:31:16 10° E
Spot 2 Rocket 4.0 20:24:38 10° SE 20:29:29 46° ENE 20:34:23 10° N
Cosmos 1437 3.3 20:27:44 10° NNW 20:30:26 47° W 20:33:06 10° S
Cosmos 1606 2.7 20:27:40 10° N 20:31:26 66° ENE 20:35:11 10° SSE
Meteor 2-13 Rocket 4.5 20:27:40 10° S 20:33:48 86° E 20:39:56 10° NNE
USA-17 4.4 20:31:21 10° SW 20:35:02 86° NW 20:38:08 10° NE
Cosmos 2221 2.6 20:31:17 10° NNW 20:35:35 82° W 20:39:53 10° S
ARIANE 5 R/B 3.3 20:32:06 10° SE 20:36:18 41° ENE 20:40:30 10° N
Cosmos 2369 3.8 20:30:39 10° NNW 20:36:20 81° WSW 20:41:59 10° SSE
BREEZE-M DEB (TANK) 3.5 20:33:28 10° W 20:36:26 57° SSW 20:44:38 10° ESE
OBJECT-B 3.8 20:37:13 10° WSW 20:38:53 13° W 20:40:33 10° WNW
COSMOS 2406 3.2 20:34:46 10° SSW 20:40:26 79° ESE 20:46:11 10° NNE
Cosmos 44 Rocket 3.6 20:38:40 10° SSW 20:43:44 56° ESE 20:48:52 10° NE
CARTOSAT-1 3.8 20:40:18 10° SSE 20:44:30 54° ENE 20:48:45 10° N
Cosmos 1980 Rocket 2.2 20:40:04 10° NNW 20:45:44 90° WSW 20:51:23 10° SSE
CZ-2C R/B 3.9 20:43:16 10° NNE 20:47:47 54° E 20:52:11 10° S
Cosmos 2098 Rocket 2.4 20:46:43 10° S 20:49:37 51° E 20:52:56 10° NNE
IGS 5A 4.4 20:47:24 10° S 20:51:24 46° W 20:55:25 10° NNW
Cosmos 1782 4.2 20:48:08 10° NNE 20:51:34 26° ENE 20:54:42 11° SE
BREEZE-M DEB (TANK) 3.1 20:41:27 10° W 20:52:06 77° S 20:55:22 10° E
Cosmos 2322 Rocket 3.4 20:48:27 10° NNW 20:53:33 33° NE 20:58:34 10° ESE
USA 234 3.7 20:49:15 10° E 20:55:42 62° NNE 21:02:09 10° WNW
Cosmos 1825 3.9 20:52:58 10° SW 20:56:26 35° WNW 20:59:55 10° N
SPOT 5 2.9 20:55:38 11° SE 20:59:36 53° ENE 21:03:51 10° N
SPOT 1/Viking Rocket 3.8 20:56:21 10° S 21:01:32 71° WSW 21:06:46 10° NNW
Cosmos 1092 Rocket 4.3 20:56:15 10° SSE 21:02:12 49° E 21:08:15 10° NNE
Cosmos 371 Rocket 3.3 21:01:10 10° NNW 21:06:01 89° SW 21:10:21 13° SSE
Cosmos 2151 3.1 21:05:59 10° S 21:10:08 57° E 21:14:19 10° NNE
ISS -3.8 21:06:49 10° WNW 21:10:12 74° SSW 21:12:58 14° ESE
Cosmos 2058 4.4 21:08:21 10° SW 21:12:16 39° WNW 21:16:15 10° N
Terra 2.1 21:12:28 14° SE 21:16:23 57° ENE 21:21:05 10° N
USA 276 2.0 21:14:33 10° W 21:17:43 75° S 21:20:24 13° ESE
SL-16 R/B 2.6 21:13:51 10° NNW 21:19:27 55° NE 21:24:03 15° SE
Cosmos 2219 Rocket 4.3 21:16:08 10° N 21:20:03 19° NNE 21:23:56 10° ENE
Cosmos 2026 Rocket 4.2 21:14:19 10° SSE 21:20:28 55° E 21:26:35 10° NNE
Cosmos 1633 3.2 21:18:59 10° SSW 21:22:31 55° WNW 21:26:07 10° N
GP-B 3.1 21:18:30 10° N 21:22:57 71° E 21:26:47 14° S
Cosmos 1271 Rocket 2.8 21:22:40 10° N 21:26:39 73° ENE 21:29:29 18° SSE
Cosmos 1151 Rocket 3.5 21:22:50 10° N 21:27:03 48° ENE 21:29:57 19° SE
Nadezhda 4 Rocket 4.2 21:20:55 10° SSW 21:27:04 74° WNW 21:33:19 10° N
Cosmos 1076 Rocket 4.2 21:25:54 10° SSW 21:30:10 56° WNW 21:34:29 10° N
Gblst 52 Del rocket 4.5 21:26:27 10° W 21:32:24 88° N 21:39:14 10° E
Meteor 2-19 Rocket 4.4 21:28:14 10° S 21:34:18 89° E 21:40:24 10° N
ERBS 4.4 21:34:40 10° W 21:36:43 16° SW 21:38:12 12° SSW
RESURS DK-1 2.6 21:32:36 10° SW 21:36:46 75° WNW 21:40:57 10° NNE
H-2A R/B 4.2 21:34:42 10° NNE 21:38:36 36° E 21:40:45 22° SSE
Cosmos 2056 Rocket 4.3 21:34:52 10° NNW 21:40:02 43° ENE 21:43:49 17° ESE
Cosmos 332 Rocket 3.9 21:36:46 10° NNW 21:41:39 72° WSW 21:45:08 19° SSE
Okean 3 Rocket 4.0 21:41:09 21° SSE 21:43:52 46° E 21:48:11 10° NNE
Meteor 1-26 Rocket 4.4 21:39:51 10° NNW 21:45:53 78° W 21:50:37 16° S
Resurs 01 Rocket 4.2 21:43:11 10° SW 21:45:58 16° W 21:48:47 10° NW
Cosmos 1933 4.0 21:43:50 10° NNW 21:47:48 52° W 21:50:55 15° SSW
Cosmos 1428 Rocket 4.4 21:46:12 10° S 21:52:16 88° E 21:58:26 10° N
ATLAS 2AS CENTAUR R/B 3.4 21:45:57 10° WSW 21:53:51 68° NW 22:01:29 10° NE
Cosmos 2082 Rocket 2.9 21:49:31 10° SW 21:55:04 57° NW 22:00:41 10° NNE
Cosmos 1553 Rocket 4.0 21:49:37 10° N 21:55:43 74° ENE 21:59:53 21° SSE
ATLAS 5 CENTAUR R/B 3.9 21:54:04 10° NW 21:58:18 26° NNE 22:03:11 10° E
Cosmos 1371 Rocket 4.2 21:55:51 10° NNW 22:01:13 66° ENE 22:04:31 23° SE
USA 267 3.3 21:56:37 10° ENE 22:03:02 54° SE 22:09:25 10° SW
CZ-3B R/B 3.4 21:48:56 10° WNW 22:03:31 72° N 22:07:15 11° E
ERS-1 Rocket 3.9 22:00:49 14° SSW 22:04:53 43° W 22:09:41 10° NNW
Cosmos 2333 Rocket 3.4 21:59:45 10° NNW 22:04:54 34° NE 22:09:26 13° ESE
Cosmos 2112 Rocket 4.4 22:02:05 23° SSE 22:05:06 46° ESE 22:10:08 10° NE
SL-27 R/B 4.1 22:05:12 19° E 22:05:14 19° E 22:07:51 10° NE
Cosmos 1680 Rocket 3.7 22:03:27 21° S 22:06:53 54° ESE 22:12:02 10° NNE
ATLAS 3B R/B 3.6 22:00:51 10° NW 22:07:26 42° WSW 22:12:25 18° S
Cosmos 2360 Rocket 2.5 22:02:59 10° NNW 22:08:35 60° NE 22:12:12 22° SE
Cosmos 2228 Rocket 4.4 22:08:58 10° N 22:12:48 28° ENE 22:14:49 20° ESE
ARIANE 5 R/B 4.3 22:09:07 10° SSW 22:12:53 27° W 22:16:43 10° NW
Gbstr 26 Del rocket 2.9 22:10:19 10° WNW 22:14:02 55° SSW 22:15:40 32° SE
Cosmos 1408 Rocket 3.8 22:13:14 29° SSE 22:15:07 51° E 22:19:21 10° NNE
Cosmos 1812 2.7 22:14:26 10° NNW 22:18:18 78° W 22:19:58 32° S
Cosmos 292 Rocket 4.3 22:14:29 10° NNW 22:19:09 50° ENE 22:21:42 25° SE
Cosmos 1862 3.3 22:19:38 33° S 22:21:18 67° E 22:25:17 10° NNE
Cosmos 158 Rocket 4.5 22:16:35 10° SW 22:21:40 61° WNW 22:26:55 10° NNE
Cosmos 220 Rocket 3.9 22:17:26 10° NNW 22:21:46 82° WSW 22:23:42 33° SSE
S3M 4.0 22:17:09 10° N 22:23:33 81° E 22:27:28 26° SSE
Meteor 2-14 Rocket 4.4 22:22:18 20° S 22:26:45 88° E 22:32:56 10° N
Cosmos 1782 4.2 22:24:18 10° NNW 22:27:55 32° W 22:30:17 18° SW
Cosmos 1980 Rocket 4.3 22:25:27 10° WNW 22:28:56 17° W 22:32:26 10° SW
BREEZE-M DEB (TANK) 3.9 22:31:21 10° W 22:31:51 16° WSW 22:31:51 16° WSW
Cosmos 1515 Rocket 3.5 22:29:36 10° NNW 22:34:06 85° WSW 22:36:00 34° S
Spot 4 3.9 22:32:44 31° SE 22:34:59 68° ENE 22:39:48 10° N
Cosmos 2237 Rocket 4.3 22:31:24 10° NNW 22:35:39 21° NE 22:39:54 10° E
Cosmos 2322 Rocket 2.5 22:32:23 10° NW 22:37:55 58° WSW 22:40:46 28° S
USA 234 3.2 22:34:19 23° SE 22:38:41 71° SW 22:45:16 10° WNW
Cosmos 1624 Rocket 4.1 22:37:56 10° NNW 22:43:07 68° WSW 22:45:32 32° S
ISS -1.9 22:44:00 10° W 22:45:54 20° SW 22:45:54 20° SW
ALOS 2 3.0 22:47:37 32° SE 22:49:21 54° ENE 22:53:38 10° N
USA 276 3.6 22:50:48 10° W 22:52:37 25° WSW 22:52:37 25° WSW
Terra 3.7 22:51:21 12° SW 22:54:30 21° W 22:58:09 10° NW
Cosmos 1420 Rocket 4.0 22:52:12 10° NNW 22:57:33 76° WSW 22:59:52 35° S
Cosmos 2084 3.6 22:58:26 44° SE 22:58:49 46° SE 23:02:50 10° NE
COBE Rocket 3.9 22:59:09 35° S 23:01:01 64° W 23:05:39 10° NNW
Cosmos 2333 4.1 22:56:13 10° NNW 23:01:52 84° ENE 23:04:36 32° SSE
COSMOS 2428 3.2 22:57:04 10° NNW 23:02:42 55° NE 23:06:09 23° ESE
SL-16 R/B 3.4 22:58:24 10° NW 23:03:17 30° WSW 23:05:54 21° SSW
Cosmos 2219 Rocket 2.4 22:59:31 10° NNW 23:05:07 66° ENE 23:08:07 28° SE
Meteor 1-27 Rocket 3.7 23:00:49 10° NNW 23:06:25 78° W 23:09:04 33° S
Cosmos 1452 Rocket 3.5 23:07:48 10° NNW 23:13:06 81° ENE 23:15:22 35° SSE
NOSS 3-1 (C) 4.0 23:11:44 10° NW 23:19:04 83° SW 23:24:41 24° SE
Cosmos 1805 Rocket 3.5 23:19:21 45° S 23:20:40 75° E 23:25:07 10° NNE
NOSS 2-1 (E) 2.7 23:20:53 74° SSE 23:21:02 76° SE 23:24:34 10° NE
Cosmos 2285 Rocket 3.9 23:17:02 10° NNW 23:23:24 89° ENE 23:26:32 32° SSE
Cosmos 1174 3.8 23:24:26 10° NW 23:26:54 42° W 23:26:54 42° W
Cosmos 2315 Rocket 4.2 23:21:26 10° NNW 23:27:40 66° W 23:30:48 31° SSW
Cosmos 1515 3.6 23:24:07 10° N 23:27:55 74° ENE 23:28:34 57° SE
Geosat 4.2 23:27:37 28° SE 23:30:14 66° NE 23:35:14 10° NNW
USA 229 DEB 3.9 23:23:46 10° NW 23:31:02 83° NE 23:36:51 19° SE
USA 229 3.9 23:23:52 10° NW 23:31:08 82° NE 23:36:59 19° SE
Cosmos 1500 Rocket 4.2 23:30:46 30° SW 23:32:35 50° WNW 23:36:55 10° N
USA 40 PKM 4.2 23:33:07 10° WNW 23:36:43 78° SSW 23:37:43 46° SE
Meteor 1-20 Rocket 4.1 23:37:01 37° S 23:39:20 80° E 23:45:01 10° NNE
CZ-4C R/B 4.5 23:33:52 10° NW 23:39:33 32° NNE 23:46:13 10° ENE
SL-27 R/B 3.7 23:38:40 27° WSW 23:40:02 39° WNW 23:43:27 10° N
COSMOS 2455 3.0 23:38:42 35° S 23:41:03 58° ESE 23:46:58 10° NE
ATLAS 5 CENTAUR R/B 2.4 23:38:26 10° NW 23:43:44 70° NE 23:48:42 17° SE
Cosmos 1110 Rocket 4.1 23:38:46 10° NNW 23:44:09 79° ENE 23:46:28 35° SSE
COSMOS 2487 2.2 23:44:23 74° ESE 23:44:25 74° ESE 23:47:49 10° NNE
Meteor 1-18 Rocket 4.3 23:40:09 10° N 23:46:06 76° ENE 23:48:44 34° SSE
USA 267 3.5 23:39:42 10° ENE 23:46:13 71° NNW 23:52:44 10° WSW
Cosmos 2333 Rocket 2.4 23:43:57 10° NW 23:49:27 54° WSW 23:51:24 37° SSW
Cosmos 2228 Rocket 4.1 23:47:03 10° NNW 23:51:04 35° W 23:52:18 29° SW
Resurs 1-4 Rocket 4.5 23:49:53 10° ENE 23:51:15 11° E 23:52:37 10° E
Cosmos 2360 Rocket 3.4 23:47:33 10° NW 23:52:13 27° WSW 23:53:56 23° SW
Nimbus 7 Rocket 4.4 23:46:55 10° NNE 23:53:01 83° ESE 23:55:47 34° SSW
Okean 1 3.2 23:49:22 10° NNW 23:53:26 80° W 23:54:11 57° S
Cosmos 1331 Rocket 4.0 23:48:12 10° NNW 23:53:30 84° ENE 23:55:40 36° SSE
Cosmos 1666 3.8 23:54:41 30° ESE 23:55:15 31° E 23:58:42 10° NNE
